DW7673 Weather Reports


Display with metric or nautical units.
time (UTC)temp
F
wind
direction
speed
MPH
gust
MPH
rain 1hr
in
rain 24hr
in
rain mn
in
humidity
%
barometer
mb
20170921192313 92 211 2.0 8.0 0.00 0.00 0.00 20 1003.5
20170921191313 92 242 1.0 7.0 0.00 0.00 0.00 21 1004.0
20170921190313 92 245 2.0 9.0 0.00 0.00 0.00 22 1003.9
20170921185314 92 266 2.0 9.0 0.00 0.00 0.00 22 1004.1
20170921184315 91 171 2.0 7.0 0.00 0.00 0.00 22 1004.6
20170921183313 91 273 5.0 12.0 0.00 0.00 0.00 22 1004.3
20170921182313 90 143 5.0 12.0 0.00 0.00 0.00 22 1004.6
20170921181313 90 205 2.0 6.0 0.00 0.00 0.00 23 1004.6
20170921180313 89 195 2.0 8.0 0.00 0.00 0.00 22 1004.8
20170921175313 88 212 3.0 8.0 0.00 0.00 0.00 23 1005.2
20170921174313 88 250 3.0 6.0 0.00 0.00 0.00 24 1005.1
20170921173313 87 164 3.0 10.0 0.00 0.00 0.00 24 1005.5
20170921172314 87 114 4.0 7.0 0.00 0.00 0.00 25 1005.4
20170921171313 86 184 3.0 10.0 0.00 0.00 0.00 26 1005.7
20170921170313 86 173 2.0 5.0 0.00 0.00 0.00 27 1005.6
20170921165314 85 159 1.0 3.0 0.00 0.00 0.00 26 1005.7
20170921164313 85 126 1.0 5.0 0.00 0.00 0.00 27 1005.8
20170921163313 84 64 1.0 3.0 0.00 0.00 0.00 28 1005.7
20170921162313 83 159 1.0 3.0 0.00 0.00 0.00 29 1005.9
20170921161314 82 166 1.0 5.0 0.00 0.00 0.00 28 1005.9
20170921160313 82 212 1.0 3.0 0.00 0.00 0.00 29 1005.9
20170921155313 81 107 1.0 3.0 0.00 0.00 0.00 29 1005.9
20170921154313 80 191 0.0 3.0 0.00 0.00 0.00 30 1005.9
20170921153313 80 181 0.0 2.0 0.00 0.00 0.00 29 1005.8
20170921152313 80 125 0.0 2.0 0.00 0.00 0.00 30 1005.7
20170921151313 79 173 0.0 1.0 0.00 0.00 0.00 31 1005.7
20170921150313 76 91 1.0 2.0 0.00 0.00 0.00 32 1005.6
20170921145314 75 96 0.0 0.0 0.00 0.00 0.00 32 1005.6
20170921144313 74 96 0.0 0.0 0.00 0.00 0.00 34 1005.5
20170921143314 72 96 0.0 0.0 0.00 0.00 0.00 39 1005.5
20170921142313 71 76 0.0 0.0 0.00 0.00 0.00 39 1005.5
20170921141314 70 345 0.0 0.0 0.00 0.00 0.00 38 1005.5
20170921140313 69 124 0.0 1.0 0.00 0.00 0.00 39 1005.3
20170921135313 67 121 0.0 0.0 0.00 0.00 0.00 42 1005.3
20170921134313 66 122 0.0 0.0 0.00 0.00 0.00 43 1005.3
20170921133313 67 121 0.0 0.0 0.00 0.00 0.00 43 1005.3
20170921132314 67 121 0.0 0.0 0.00 0.00 0.00 37 1005.2
20170921131314 67 122 0.0 1.0 0.00 0.00 0.00 37 1005.2
20170921130314 67 229 0.0 0.0 0.00 0.00 0.00 36 1005.1
20170921125313 67 221 0.0 0.0 0.00 0.00 0.00 35 1005.0
20170921124313 67 135 0.0 0.0 0.00 0.00 0.00 35 1005.0
20170921123314 68 135 0.0 0.0 0.00 0.00 0.00 35 1004.9
20170921122314 68 135 0.0 0.0 0.00 0.00 0.00 34 1004.8
20170921121313 67 135 0.0 0.0 0.00 0.00 0.00 33 1004.9
20170921120313 68 134 0.0 0.0 0.00 0.00 0.00 31 1004.8
20170921115313 69 135 0.0 0.0 0.00 0.00 0.00 30 1004.8
20170921114314 70 135 0.0 0.0 0.00 0.00 0.00 29 1004.7
20170921113314 70 135 0.0 0.0 0.00 0.00 0.00 29 1004.7
20170921112314 69 135 0.0 0.0 0.00 0.00 0.00 29 1004.7
20170921111313 69 139 0.0 0.0 0.00 0.00 0.00 29 1004.6
20170921110313 69 139 0.0 0.0 0.00 0.00 0.00 28 1004.5
20170921105313 70 139 0.0 0.0 0.00 0.00 0.00 29 1004.5
20170921104313 71 139 0.0 0.0 0.00 0.00 0.00 27 1004.6
20170921103314 71 139 0.0 0.0 0.00 0.00 0.00 27 1004.6
20170921102314 71 138 0.0 1.0 0.00 0.00 0.00 26 1004.6
20170921101313 71 244 0.0 0.0 0.00 0.00 0.00 26 1004.6
20170921100313 72 245 0.0 0.0 0.00 0.00 0.00 26 1004.7
20170921095314 72 245 0.0 0.0 0.00 0.00 0.00 26 1004.8
20170921094313 72 173 0.0 0.0 0.00 0.00 0.00 26 1004.6
20170921093313 72 170 0.0 0.0 0.00 0.00 0.00 26 1004.8
20170921092314 73 170 0.0 1.0 0.00 0.00 0.00 26 1004.7
20170921091314 73 339 0.0 1.0 0.00 0.00 0.00 26 1004.7
20170921090314 73 256 0.0 1.0 0.00 0.00 0.00 25 1004.8
20170921085314 74 222 0.0 2.0 0.00 0.00 0.00 25 1004.9
20170921084320 74 159 0.0 3.0 0.00 0.00 0.00 26 1004.9
20170921083315 73 327 0.0 1.0 0.00 0.00 0.00 26 1004.8
20170921082314 72 343 0.0 0.0 0.00 0.00 0.00 28 1004.8
20170921081316 72 342 0.0 0.0 0.00 0.00 0.00 28 1004.8
20170921080317 72 342 0.0 0.0 0.00 0.00 0.00 28 1004.8
20170921075314 73 342 0.0 0.0 0.00 0.00 0.00 27 1004.7
20170921074317 73 342 0.0 0.0 0.00 0.00 0.00 25 1004.6
20170921073317 74 342 0.0 0.0 0.00 0.00 0.00 25 1004.5
20170921072315 74 343 0.0 0.0 0.00 0.00 0.00 24 1004.5
20170921071314 75 342 0.0 0.0 0.00 0.00 0.00 24 1004.5
20170921070314 76 342 0.0 0.0 0.00 0.00 0.00 22 1004.5
20170921065314 77 342 0.0 1.0 0.00 0.00 0.00 21 1004.4
20170921064316 77 39 0.0 1.0 0.00 0.00 0.00 20 1004.4
20170921063314 77 102 0.0 1.0 0.00 0.00 0.00 21 1004.3
20170921062314 78 115 0.0 1.0 0.00 0.00 0.00 21 1004.2
20170921061314 79 338 0.0 2.0 0.00 0.00 0.00 20 1004.1
20170921060314 81 350 1.0 3.0 0.00 0.00 0.00 18 1004.0
20170921055314 85 48 0.0 6.0 0.00 0.00 0.00 14 1003.8
20170921054318 85 209 1.0 5.0 0.00 0.00 0.00 13 1003.8
20170921053314 84 201 1.0 5.0 0.00 0.00 0.00 14 1003.7
20170921052314 82 221 1.0 3.0 0.00 0.00 0.00 18 1003.6
20170921051314 82 260 1.0 3.0 0.00 0.00 0.00 20 1003.6
20170921050314 82 224 1.0 2.0 0.00 0.00 0.00 21 1003.7
20170921045315 83 249 1.0 3.0 0.00 0.00 0.00 20 1003.7
20170921044322 84 233 0.0 2.0 0.00 0.00 0.00 19 1003.6
20170921043314 84 227 1.0 2.0 0.00 0.00 0.00 19 1003.6
20170921042314 85 224 0.0 2.0 0.00 0.00 0.00 19 1003.7
20170921041315 85 235 0.0 3.0 0.00 0.00 0.00 18 1003.5
20170921040314 85 190 1.0 3.0 0.00 0.00 0.00 19 1003.6
20170921035314 85 227 0.0 1.0 0.00 0.00 0.00 18 1003.4
20170921034315 86 238 0.0 2.0 0.00 0.00 0.00 17 1003.5
20170921033315 86 274 0.0 1.0 0.00 0.00 0.00 16 1003.2
20170921032314 87 258 0.0 1.0 0.00 0.00 0.00 16 1003.1
20170921031314 88 255 0.0 3.0 0.00 0.00 0.00 15 1003.0
20170921030314 88 269 1.0 3.0 0.00 0.00 0.00 15 1003.0
20170921025328 89 241 1.0 2.0 0.00 0.00 0.00 15 1003.1
20170921024314 89 241 1.0 5.0 0.00 0.00 0.00 15 1002.8
20170921023315 89 235 0.0 2.0 0.00 0.00 0.00 16 1002.6
20170921022314 90 219 1.0 3.0 0.00 0.00 0.00 17 1002.5
20170921021314 91 229 1.0 3.0 0.00 0.00 0.00 19 1002.5
20170921020314 91 223 0.0 1.0 0.00 0.00 0.00 19 1002.1
20170921015316 92 269 0.0 2.0 0.00 0.00 0.00 18 1002.0
20170921014314 92 253 0.0 1.0 0.00 0.00 0.00 18 1002.0
20170921013314 93 250 0.0 3.0 0.00 0.00 0.00 17 1002.2
20170921012315 94 259 1.0 3.0 0.00 0.00 0.00 16 1002.3
20170921011314 95 250 0.0 2.0 0.00 0.00 0.00 16 1002.3
20170921010315 96 263 1.0 3.0 0.00 0.00 0.00 15 1002.2
20170921005328 97 228 1.0 3.0 0.00 0.00 0.00 14 1002.2
20170921004315 98 282 1.0 3.0 0.00 0.00 0.00 15 1002.2
20170921003314 98 233 3.0 6.0 0.00 0.00 0.00 14 1002.3
20170921002314 98 258 1.0 6.0 0.00 0.00 0.00 14 1002.6
20170921001315 99 245 2.0 6.0 0.00 0.00 0.00 14 1002.6
20170921000315 98 215 1.0 5.0 0.00 0.00 0.00 14 1002.6
20170920235329 99 259 2.0 6.0 0.00 0.00 0.00 14 1002.7
20170920234315 99 276 1.0 6.0 0.00 0.00 0.00 14 1002.5
20170920233314 99 249 1.0 6.0 0.00 0.00 0.00 13 1002.6
20170920232314 99 239 3.0 8.0 0.00 0.00 0.00 13 1002.7
20170920231314 99 272 1.0 7.0 0.00 0.00 0.00 15 1002.7
20170920230314 99 266 1.0 7.0 0.00 0.00 0.00 15 1003.0
20170920225315 99 233 2.0 6.0 0.00 0.00 0.00 15 1003.0
20170920224314 98 276 1.0 10.0 0.00 0.00 0.00 16 1003.1
20170920223314 98 216 2.0 7.0 0.00 0.00 0.00 15 1003.0
20170920222314 99 221 5.0 9.0 0.00 0.00 0.00 15 1003.1
20170920221314 98 143 2.0 6.0 0.00 0.00 0.00 16 1003.2
20170920220315 98 248 3.0 8.0 0.00 0.00 0.00 15 1003.7
20170920215317 99 263 1.0 3.0 0.00 0.00 0.00 16 1003.6
20170920214316 98 168 2.0 7.0 0.00 0.00 0.00 15 1003.6
20170920213318 98 266 5.0 12.0 0.00 0.00 0.00 14 1003.8
20170920212315 99 226 3.0 8.0 0.00 0.00 0.00 14 1003.9
20170920211314 98 159 3.0 9.0 0.00 0.00 0.00 14 1004.2
20170920210315 98 197 4.0 12.0 0.00 0.00 0.00 14 1004.3
20170920205315 98 148 2.0 7.0 0.00 0.00 0.00 18 1004.3
20170920204316 97 224 3.0 8.0 0.00 0.00 0.00 18 1004.4
20170920203316 96 159 1.0 6.0 0.00 0.00 0.00 18 1004.6
20170920202315 96 117 5.0 12.0 0.00 0.00 0.00 19 1005.1
20170920201314 97 214 4.0 7.0 0.00 0.00 0.00 18 1005.1
20170920200317 95 219 3.0 12.0 0.00 0.00 0.00 19 1005.3
20170920195316 95 158 5.0 12.0 0.00 0.00 0.00 25 1005.2
20170920194318 94 105 3.0 7.0 0.00 0.00 0.00 26 1005.5
20170920193314 94 103 3.0 6.0 0.00 0.00 0.00 26 1005.9